Year,Month,Day,Hour,Minute,Value (Times are PST for temperature in C)
2022,10,08,00,00,16.80
2022,10,08,00,01,16.80
2022,10,08,00,02,16.80
2022,10,08,00,03,16.80
2022,10,08,00,04,16.70
2022,10,08,00,05,16.70
2022,10,08,00,06,16.70
2022,10,08,00,07,16.70
2022,10,08,00,08,16.70
2022,10,08,00,09,16.70
2022,10,08,00,10,16.70
2022,10,08,00,11,16.70
2022,10,08,00,12,16.70
2022,10,08,00,13,16.70
2022,10,08,00,14,16.70
2022,10,08,00,15,16.70
2022,10,08,00,16,16.70
2022,10,08,00,17,16.70
2022,10,08,00,18,16.70
2022,10,08,00,19,16.70
2022,10,08,00,20,16.60
2022,10,08,00,21,16.60
2022,10,08,00,22,16.60
2022,10,08,00,23,16.60
2022,10,08,00,24,16.50
2022,10,08,00,25,16.50
2022,10,08,00,26,16.50
2022,10,08,00,27,16.40
2022,10,08,00,28,16.40
2022,10,08,00,29,16.40
2022,10,08,00,30,16.40
2022,10,08,00,31,16.40
2022,10,08,00,32,16.40
2022,10,08,00,33,16.40
2022,10,08,00,34,16.40
2022,10,08,00,35,16.40
2022,10,08,00,36,16.40
2022,10,08,00,37,16.40
2022,10,08,00,38,16.40
2022,10,08,00,39,16.40
2022,10,08,00,40,16.40
2022,10,08,00,41,16.40
2022,10,08,00,42,16.40
2022,10,08,00,43,16.40
2022,10,08,00,44,16.40
2022,10,08,00,45,16.40
2022,10,08,00,46,16.40
2022,10,08,00,47,16.40
2022,10,08,00,48,16.40
2022,10,08,00,49,16.40
2022,10,08,00,50,16.40
2022,10,08,00,51,16.40
2022,10,08,00,52,16.40
2022,10,08,00,53,16.30
2022,10,08,00,54,16.30
2022,10,08,00,55,16.30
2022,10,08,00,56,16.30
2022,10,08,00,57,16.30
2022,10,08,00,58,16.30
2022,10,08,00,59,16.30
2022,10,08,01,00,16.30
2022,10,08,01,01,16.30
2022,10,08,01,02,16.20
2022,10,08,01,03,16.20
2022,10,08,01,04,16.20
2022,10,08,01,05,16.20
2022,10,08,01,06,16.10
2022,10,08,01,07,16.10
2022,10,08,01,08,16.10
2022,10,08,01,09,16.10
2022,10,08,01,10,16.10
2022,10,08,01,11,16.00
2022,10,08,01,12,16.00
2022,10,08,01,13,16.00
2022,10,08,01,14,16.00
2022,10,08,01,15,15.90
2022,10,08,01,16,15.90
2022,10,08,01,17,15.90
2022,10,08,01,18,15.90
2022,10,08,01,19,15.90
2022,10,08,01,20,15.90
2022,10,08,01,21,15.90
2022,10,08,01,22,15.90
2022,10,08,01,23,15.90
2022,10,08,01,24,15.90
2022,10,08,01,25,15.90
2022,10,08,01,26,15.90
2022,10,08,01,27,15.90
2022,10,08,01,28,15.80
2022,10,08,01,29,15.80
2022,10,08,01,30,15.80
2022,10,08,01,31,15.80
2022,10,08,01,32,15.80
2022,10,08,01,33,15.80
2022,10,08,01,34,15.70
2022,10,08,01,35,15.70
2022,10,08,01,36,15.70
2022,10,08,01,37,15.70
2022,10,08,01,38,15.70
2022,10,08,01,39,15.70
2022,10,08,01,40,15.60
2022,10,08,01,41,15.60
2022,10,08,01,42,15.60
2022,10,08,01,43,15.60
2022,10,08,01,44,15.60
2022,10,08,01,45,15.60
2022,10,08,01,46,15.60
2022,10,08,01,47,15.60
2022,10,08,01,48,15.60
2022,10,08,01,49,15.60
2022,10,08,01,50,15.60
2022,10,08,01,51,15.60
2022,10,08,01,52,15.60
2022,10,08,01,53,15.60
2022,10,08,01,54,15.60
2022,10,08,01,55,15.60
2022,10,08,01,56,15.60
2022,10,08,01,57,15.60
2022,10,08,01,58,15.60
2022,10,08,01,59,15.60
2022,10,08,02,00,15.60
2022,10,08,02,01,15.60
2022,10,08,02,02,15.60
2022,10,08,02,03,15.60
2022,10,08,02,04,15.60
2022,10,08,02,05,15.60
2022,10,08,02,06,15.60
2022,10,08,02,07,15.60
2022,10,08,02,08,15.60
2022,10,08,02,09,15.60
2022,10,08,02,10,15.60
2022,10,08,02,11,15.60
2022,10,08,02,12,15.60
2022,10,08,02,13,15.60
2022,10,08,02,14,15.60
2022,10,08,02,15,15.60
2022,10,08,02,16,15.60
2022,10,08,02,17,15.60
2022,10,08,02,18,15.60
2022,10,08,02,19,15.60
2022,10,08,02,20,15.60
2022,10,08,02,21,15.50
2022,10,08,02,22,15.50
2022,10,08,02,23,15.50
2022,10,08,02,24,15.50
2022,10,08,02,25,15.50
2022,10,08,02,26,15.50
2022,10,08,02,27,15.50
2022,10,08,02,28,15.40
2022,10,08,02,29,15.40
2022,10,08,02,30,15.40
2022,10,08,02,31,15.40
2022,10,08,02,32,15.40
2022,10,08,02,33,15.40
2022,10,08,02,34,15.40
2022,10,08,02,35,15.40
2022,10,08,02,36,15.40
2022,10,08,02,37,15.40
2022,10,08,02,38,15.40
2022,10,08,02,39,15.40
2022,10,08,02,40,15.40
2022,10,08,02,41,15.40
2022,10,08,02,42,15.30
2022,10,08,02,43,15.30
2022,10,08,02,44,15.30
2022,10,08,02,45,15.30
2022,10,08,02,46,15.30
2022,10,08,02,47,15.30
2022,10,08,02,48,15.30
2022,10,08,02,49,15.20
2022,10,08,02,50,15.20
2022,10,08,02,51,15.20
2022,10,08,02,52,15.20
2022,10,08,02,53,15.20
2022,10,08,02,54,15.20
2022,10,08,02,55,15.20
2022,10,08,02,56,15.20
2022,10,08,02,57,15.20
2022,10,08,02,58,15.20
2022,10,08,02,59,15.10
2022,10,08,03,00,15.10
2022,10,08,03,01,15.10
2022,10,08,03,02,15.10
2022,10,08,03,03,15.10
2022,10,08,03,04,15.00
2022,10,08,03,05,15.00
2022,10,08,03,06,15.00
2022,10,08,03,07,14.90
2022,10,08,03,08,14.90
2022,10,08,03,09,14.90
2022,10,08,03,10,14.90
2022,10,08,03,11,14.80
2022,10,08,03,12,14.80
2022,10,08,03,13,14.80
2022,10,08,03,14,14.80
2022,10,08,03,15,14.80
2022,10,08,03,16,14.80
2022,10,08,03,17,14.70
2022,10,08,03,18,14.70
2022,10,08,03,19,14.70
2022,10,08,03,20,14.70
2022,10,08,03,21,14.70
2022,10,08,03,22,14.70
2022,10,08,03,23,14.70
2022,10,08,03,24,14.70
2022,10,08,03,25,14.60
2022,10,08,03,26,14.60
2022,10,08,03,27,14.60
2022,10,08,03,28,14.60
2022,10,08,03,29,14.50
2022,10,08,03,30,14.50
2022,10,08,03,31,14.50
2022,10,08,03,32,14.50
2022,10,08,03,33,14.50
2022,10,08,03,34,14.40
2022,10,08,03,35,14.40
2022,10,08,03,36,14.40
2022,10,08,03,37,14.40
2022,10,08,03,38,14.40
2022,10,08,03,39,14.40
2022,10,08,03,40,14.50
2022,10,08,03,41,14.50
2022,10,08,03,42,14.50
2022,10,08,03,43,14.50
2022,10,08,03,44,14.50
2022,10,08,03,45,14.50
2022,10,08,03,46,14.50
2022,10,08,03,47,14.50
2022,10,08,03,48,14.50
2022,10,08,03,49,14.60
2022,10,08,03,50,14.60
2022,10,08,03,51,14.60
2022,10,08,03,52,14.60
2022,10,08,03,53,14.60
2022,10,08,03,54,14.60
2022,10,08,03,55,14.50
2022,10,08,03,56,14.50
2022,10,08,03,57,14.50
2022,10,08,03,58,14.50
2022,10,08,03,59,14.40
2022,10,08,04,00,14.40
2022,10,08,04,01,14.40
2022,10,08,04,02,14.40
2022,10,08,04,03,14.40
2022,10,08,04,04,14.30
2022,10,08,04,05,14.30
2022,10,08,04,06,14.30
2022,10,08,04,07,14.30
2022,10,08,04,08,14.30
2022,10,08,04,09,14.30
2022,10,08,04,10,14.30
2022,10,08,04,11,14.30
2022,10,08,04,12,14.30
2022,10,08,04,13,14.30
2022,10,08,04,14,14.30
2022,10,08,04,15,14.30
2022,10,08,04,16,14.30
2022,10,08,04,17,14.30
2022,10,08,04,18,14.30
2022,10,08,04,19,14.20
2022,10,08,04,20,14.20
2022,10,08,04,21,14.20
2022,10,08,04,22,14.20
2022,10,08,04,23,14.20
2022,10,08,04,24,14.20
2022,10,08,04,25,14.20
2022,10,08,04,26,14.20
2022,10,08,04,27,14.20
2022,10,08,04,28,14.20
2022,10,08,04,29,14.20
2022,10,08,04,30,14.20
2022,10,08,04,31,14.20
2022,10,08,04,32,14.20
2022,10,08,04,33,14.20
2022,10,08,04,34,14.20
2022,10,08,04,35,14.20
2022,10,08,04,36,14.20
2022,10,08,04,37,14.20
2022,10,08,04,38,14.20
2022,10,08,04,39,14.20
2022,10,08,04,40,14.20
2022,10,08,04,41,14.20
2022,10,08,04,42,14.20
2022,10,08,04,43,14.20
2022,10,08,04,44,14.30
2022,10,08,04,45,14.30
2022,10,08,04,46,14.30
2022,10,08,04,47,14.30
2022,10,08,04,48,14.30
2022,10,08,04,49,14.30
2022,10,08,04,50,14.30
2022,10,08,04,51,14.30
2022,10,08,04,52,14.30
2022,10,08,04,53,14.30
2022,10,08,04,54,14.30
2022,10,08,04,55,14.30
2022,10,08,04,56,14.30
2022,10,08,04,57,14.20
2022,10,08,04,58,14.20
2022,10,08,04,59,14.20
2022,10,08,05,00,14.20
2022,10,08,05,01,14.20
2022,10,08,05,02,14.10
2022,10,08,05,03,14.10
2022,10,08,05,04,14.10
2022,10,08,05,05,14.10
2022,10,08,05,06,14.10
2022,10,08,05,07,14.10
2022,10,08,05,08,14.10
2022,10,08,05,09,14.10
2022,10,08,05,10,14.20
2022,10,08,05,11,14.20
2022,10,08,05,12,14.20
2022,10,08,05,13,14.20
2022,10,08,05,14,14.20
2022,10,08,05,15,14.20
2022,10,08,05,16,14.20
2022,10,08,05,17,14.20
2022,10,08,05,18,14.10
2022,10,08,05,19,14.10
2022,10,08,05,20,14.10
2022,10,08,05,21,14.10
2022,10,08,05,22,14.10
2022,10,08,05,23,14.10
2022,10,08,05,24,14.10
2022,10,08,05,25,14.20
2022,10,08,05,26,14.20
2022,10,08,05,27,14.20
2022,10,08,05,28,14.20
2022,10,08,05,29,14.10
2022,10,08,05,30,14.10
2022,10,08,05,31,14.10
2022,10,08,05,32,14.10
2022,10,08,05,33,14.10
2022,10,08,05,34,14.00
2022,10,08,05,35,14.00
2022,10,08,05,36,13.90
2022,10,08,05,37,13.90
2022,10,08,05,38,13.90
2022,10,08,05,39,13.80
2022,10,08,05,40,13.80
2022,10,08,05,41,13.80
2022,10,08,05,42,13.70
2022,10,08,05,43,13.70
2022,10,08,05,44,13.70
2022,10,08,05,45,13.70
2022,10,08,05,46,13.60
2022,10,08,05,47,13.60
2022,10,08,05,48,13.60
2022,10,08,05,49,13.60
2022,10,08,05,50,13.70
2022,10,08,05,51,13.70
2022,10,08,05,52,13.60
2022,10,08,05,53,13.70
2022,10,08,05,54,13.60
2022,10,08,05,55,13.60
2022,10,08,05,56,13.60
2022,10,08,05,57,13.60
2022,10,08,05,58,13.60
2022,10,08,05,59,13.60
2022,10,08,06,00,13.60
2022,10,08,06,01,13.60
2022,10,08,06,02,13.70
2022,10,08,06,03,13.70
2022,10,08,06,04,13.70
2022,10,08,06,05,13.70
2022,10,08,06,06,13.70
2022,10,08,06,07,13.70
2022,10,08,06,08,13.70
2022,10,08,06,09,13.70
2022,10,08,06,10,13.70
2022,10,08,06,11,13.70
2022,10,08,06,12,13.70
2022,10,08,06,13,13.70
2022,10,08,06,14,13.70
2022,10,08,06,15,13.70
2022,10,08,06,16,13.80
2022,10,08,06,17,13.80
2022,10,08,06,18,13.80
2022,10,08,06,19,13.70
2022,10,08,06,20,13.70
2022,10,08,06,21,13.70
2022,10,08,06,22,13.70
2022,10,08,06,23,13.70
2022,10,08,06,24,13.70
2022,10,08,06,25,13.70
2022,10,08,06,26,13.70
2022,10,08,06,27,13.70
2022,10,08,06,28,13.70
2022,10,08,06,29,13.70
2022,10,08,06,30,13.70
2022,10,08,06,31,13.70
2022,10,08,06,32,13.70
2022,10,08,06,33,13.70
2022,10,08,06,34,13.70
2022,10,08,06,35,13.70
2022,10,08,06,36,13.70
2022,10,08,06,37,13.70
2022,10,08,06,38,13.70
2022,10,08,06,39,13.70
2022,10,08,06,40,13.70
2022,10,08,06,41,13.70
2022,10,08,06,42,13.70
2022,10,08,06,43,13.70
2022,10,08,06,44,13.70
2022,10,08,06,45,13.70
2022,10,08,06,46,13.70
2022,10,08,06,47,13.70
2022,10,08,06,48,13.70
2022,10,08,06,49,13.70
2022,10,08,06,50,13.70
2022,10,08,06,51,13.60
2022,10,08,06,52,13.60
2022,10,08,06,53,13.60
2022,10,08,06,54,13.60
2022,10,08,06,55,13.60
2022,10,08,06,56,13.60
2022,10,08,06,57,13.60
2022,10,08,06,58,13.60
2022,10,08,06,59,13.60
2022,10,08,07,00,13.60
2022,10,08,07,01,13.60
2022,10,08,07,02,13.60
2022,10,08,07,03,13.60
2022,10,08,07,04,13.60
2022,10,08,07,05,13.60
2022,10,08,07,06,13.60
2022,10,08,07,07,13.60
2022,10,08,07,08,13.60
2022,10,08,07,09,13.60
2022,10,08,07,10,13.60
2022,10,08,07,11,13.60
2022,10,08,07,12,13.50
2022,10,08,07,13,13.50
2022,10,08,07,14,13.50
2022,10,08,07,15,13.40
2022,10,08,07,16,13.40
2022,10,08,07,17,13.40
2022,10,08,07,18,13.40
2022,10,08,07,19,13.40
2022,10,08,07,20,13.40
2022,10,08,07,21,13.40
2022,10,08,07,22,13.40
2022,10,08,07,23,13.40
2022,10,08,07,24,13.40
2022,10,08,07,25,13.40
2022,10,08,07,26,13.40
2022,10,08,07,27,13.40
2022,10,08,07,28,13.40
2022,10,08,07,29,13.40
2022,10,08,07,30,13.30
2022,10,08,07,31,13.30
2022,10,08,07,32,13.30
2022,10,08,07,33,13.30
2022,10,08,07,34,13.30
2022,10,08,07,35,13.30
2022,10,08,07,36,13.30
2022,10,08,07,37,13.30
2022,10,08,07,38,13.30
2022,10,08,07,39,13.30
2022,10,08,07,40,13.30
2022,10,08,07,41,13.30
2022,10,08,07,42,13.30
2022,10,08,07,43,13.30
2022,10,08,07,44,13.30
2022,10,08,07,45,13.30
2022,10,08,07,46,13.30
2022,10,08,07,47,13.30
2022,10,08,07,48,13.30
2022,10,08,07,49,13.30
2022,10,08,07,50,13.30
2022,10,08,07,51,13.30
2022,10,08,07,52,13.30
2022,10,08,07,53,13.30
2022,10,08,07,54,13.30
2022,10,08,07,55,13.30
2022,10,08,07,56,13.30
2022,10,08,07,57,13.30
2022,10,08,07,58,13.30
2022,10,08,07,59,13.30
2022,10,08,08,00,13.20
2022,10,08,08,01,13.20
2022,10,08,08,02,13.20
2022,10,08,08,03,13.20
2022,10,08,08,04,13.20
2022,10,08,08,05,13.20
2022,10,08,08,06,13.20
2022,10,08,08,07,13.20
2022,10,08,08,08,13.20
2022,10,08,08,09,13.20
2022,10,08,08,10,13.20
2022,10,08,08,11,13.20
2022,10,08,08,12,13.20
2022,10,08,08,13,13.20
2022,10,08,08,14,13.20
2022,10,08,08,15,13.20
2022,10,08,08,16,13.20
2022,10,08,08,17,13.20
2022,10,08,08,18,13.20
2022,10,08,08,19,13.20
2022,10,08,08,20,13.20
2022,10,08,08,21,13.20
2022,10,08,08,22,13.20
2022,10,08,08,23,13.20
2022,10,08,08,24,13.20
2022,10,08,08,25,13.30
2022,10,08,08,26,13.30
2022,10,08,08,27,13.30
2022,10,08,08,28,13.30
2022,10,08,08,29,13.30
2022,10,08,08,30,13.30
2022,10,08,08,31,13.30
2022,10,08,08,32,13.30
2022,10,08,08,33,13.30
2022,10,08,08,34,13.30
2022,10,08,08,35,13.30
2022,10,08,08,36,13.30
2022,10,08,08,37,13.40
2022,10,08,08,38,13.40
2022,10,08,08,39,13.40
2022,10,08,08,40,13.40
2022,10,08,08,41,13.40
2022,10,08,08,42,13.40
2022,10,08,08,43,13.40
2022,10,08,08,44,13.40
2022,10,08,08,45,13.40
2022,10,08,08,46,13.40
2022,10,08,08,47,13.40
2022,10,08,08,48,13.40
2022,10,08,08,49,13.40
2022,10,08,08,50,13.40
2022,10,08,08,51,13.40
2022,10,08,08,52,13.40
2022,10,08,08,53,13.40
2022,10,08,08,54,13.40
2022,10,08,08,55,13.40
2022,10,08,08,56,13.40
2022,10,08,08,57,13.40
2022,10,08,08,58,13.40
2022,10,08,08,59,13.40
2022,10,08,09,00,13.50
2022,10,08,09,01,13.50
2022,10,08,09,02,13.50
2022,10,08,09,03,13.60
2022,10,08,09,04,13.60
2022,10,08,09,05,13.60
2022,10,08,09,06,13.60
2022,10,08,09,07,13.60
2022,10,08,09,08,13.60
2022,10,08,09,09,13.60
2022,10,08,09,10,13.60
2022,10,08,09,11,13.70
2022,10,08,09,12,13.70
2022,10,08,09,13,13.70
2022,10,08,09,14,13.80
2022,10,08,09,15,13.80
2022,10,08,09,16,13.80
2022,10,08,09,17,13.80
2022,10,08,09,18,13.90
2022,10,08,09,19,13.90
2022,10,08,09,20,13.90
2022,10,08,09,21,14.00
2022,10,08,09,22,14.00
2022,10,08,09,23,14.00
2022,10,08,09,24,14.10
2022,10,08,09,25,14.10
2022,10,08,09,26,14.10
2022,10,08,09,27,14.20
2022,10,08,09,28,14.20
2022,10,08,09,29,14.20
2022,10,08,09,30,14.30
2022,10,08,09,31,14.30
2022,10,08,09,32,14.30
2022,10,08,09,33,14.30
2022,10,08,09,34,14.40
2022,10,08,09,35,14.40
2022,10,08,09,36,14.50
2022,10,08,09,37,14.50
2022,10,08,09,38,14.60
2022,10,08,09,39,14.60
2022,10,08,09,40,14.60
2022,10,08,09,41,14.70
2022,10,08,09,42,14.70
2022,10,08,09,43,14.80
2022,10,08,09,44,14.80
2022,10,08,09,45,14.90
2022,10,08,09,46,14.90
2022,10,08,09,47,15.00
2022,10,08,09,48,15.00
2022,10,08,09,49,15.10
2022,10,08,09,50,15.10
2022,10,08,09,51,15.20
2022,10,08,09,52,15.20
2022,10,08,09,53,15.20
2022,10,08,09,54,15.30
2022,10,08,09,55,15.30
2022,10,08,09,56,15.30
2022,10,08,09,57,15.30
2022,10,08,09,58,15.30
2022,10,08,09,59,15.30
2022,10,08,10,00,15.30
2022,10,08,10,01,15.40
2022,10,08,10,02,15.40
2022,10,08,10,03,15.40
2022,10,08,10,04,15.40
2022,10,08,10,05,15.40
2022,10,08,10,06,15.50
2022,10,08,10,07,15.50
2022,10,08,10,08,15.60
2022,10,08,10,09,15.60
2022,10,08,10,10,15.60
2022,10,08,10,11,15.60
2022,10,08,10,12,15.60
2022,10,08,10,13,15.60
2022,10,08,10,14,15.70
2022,10,08,10,15,15.70
2022,10,08,10,16,15.70
2022,10,08,10,17,15.70
2022,10,08,10,18,15.70
2022,10,08,10,19,15.80
2022,10,08,10,20,15.80
2022,10,08,10,21,15.80
2022,10,08,10,22,15.90
2022,10,08,10,23,15.90
2022,10,08,10,24,16.00
2022,10,08,10,25,16.00
2022,10,08,10,26,16.00
2022,10,08,10,27,16.00
2022,10,08,10,28,16.10
2022,10,08,10,29,16.10
2022,10,08,10,30,16.20
2022,10,08,10,31,16.20
2022,10,08,10,32,16.20
2022,10,08,10,33,16.20
2022,10,08,10,34,16.20
2022,10,08,10,35,16.30
2022,10,08,10,36,16.30
2022,10,08,10,37,16.30
2022,10,08,10,38,16.40
2022,10,08,10,39,16.40
2022,10,08,10,40,16.50
2022,10,08,10,41,16.50
2022,10,08,10,42,16.50
2022,10,08,10,43,16.60
2022,10,08,10,44,16.60
2022,10,08,10,45,16.60
2022,10,08,10,46,16.70
2022,10,08,10,47,16.80
2022,10,08,10,48,16.80
2022,10,08,10,49,16.90
2022,10,08,10,50,17.00
2022,10,08,10,51,17.00
2022,10,08,10,52,17.10
2022,10,08,10,53,17.10
2022,10,08,10,54,17.20
2022,10,08,10,55,17.20
2022,10,08,10,56,17.20
2022,10,08,10,57,17.30
2022,10,08,10,58,17.30
2022,10,08,10,59,17.30
2022,10,08,11,00,17.30
2022,10,08,11,01,17.30
2022,10,08,11,02,17.30
2022,10,08,11,03,17.30
2022,10,08,11,04,17.30
2022,10,08,11,05,17.30
2022,10,08,11,06,17.30
2022,10,08,11,07,17.30
2022,10,08,11,08,17.30
2022,10,08,11,09,17.40
2022,10,08,11,10,17.40
2022,10,08,11,11,17.40
2022,10,08,11,12,17.50
2022,10,08,11,13,17.50
2022,10,08,11,14,17.60
2022,10,08,11,15,17.60
2022,10,08,11,16,17.60
2022,10,08,11,17,17.60
2022,10,08,11,18,17.60
2022,10,08,11,19,17.70
2022,10,08,11,20,17.70
2022,10,08,11,21,17.70
2022,10,08,11,22,17.80
2022,10,08,11,23,17.70
2022,10,08,11,24,17.70
2022,10,08,11,25,17.70
2022,10,08,11,26,17.70
2022,10,08,11,27,17.70
2022,10,08,11,28,17.80
2022,10,08,11,29,17.80
2022,10,08,11,30,17.80
2022,10,08,11,31,17.70
2022,10,08,11,32,17.70
2022,10,08,11,33,17.80
2022,10,08,11,34,17.80
2022,10,08,11,35,17.80
2022,10,08,11,36,17.90
2022,10,08,11,37,17.90
2022,10,08,11,38,17.90
2022,10,08,11,39,18.00
2022,10,08,11,40,18.10
2022,10,08,11,41,18.10
2022,10,08,11,42,18.20
2022,10,08,11,43,18.20
2022,10,08,11,44,18.30
2022,10,08,11,45,18.30
2022,10,08,11,46,18.30
2022,10,08,11,47,18.30
2022,10,08,11,48,18.40
2022,10,08,11,49,18.40
2022,10,08,11,50,18.40
2022,10,08,11,51,18.40
2022,10,08,11,52,18.40
2022,10,08,11,53,18.50
2022,10,08,11,54,18.50
2022,10,08,11,55,18.60
2022,10,08,11,56,18.60
2022,10,08,11,57,18.60
2022,10,08,11,58,18.60
2022,10,08,11,59,18.60
2022,10,08,12,00,18.60
2022,10,08,12,01,18.60
2022,10,08,12,02,18.60
2022,10,08,12,03,18.60
2022,10,08,12,04,18.60
2022,10,08,12,05,18.60
2022,10,08,12,06,18.60
2022,10,08,12,07,18.60
2022,10,08,12,08,18.60
2022,10,08,12,09,18.60
2022,10,08,12,10,18.60
2022,10,08,12,11,18.60
2022,10,08,12,12,18.70
2022,10,08,12,13,18.80
2022,10,08,12,14,18.90
2022,10,08,12,15,19.00
2022,10,08,12,16,19.00
2022,10,08,12,17,19.10
2022,10,08,12,18,19.10
2022,10,08,12,19,19.10
2022,10,08,12,20,19.10
2022,10,08,12,21,19.10
2022,10,08,12,22,19.20
2022,10,08,12,23,19.20
2022,10,08,12,24,19.20
2022,10,08,12,25,19.10
2022,10,08,12,26,19.10
2022,10,08,12,27,19.10
2022,10,08,12,28,19.10
2022,10,08,12,29,19.10
2022,10,08,12,30,19.00
2022,10,08,12,31,19.00
2022,10,08,12,32,19.00
2022,10,08,12,33,19.00
2022,10,08,12,34,19.10
2022,10,08,12,35,19.10
2022,10,08,12,36,19.20
2022,10,08,12,37,19.20
2022,10,08,12,38,19.20
2022,10,08,12,39,19.20
2022,10,08,12,40,19.30
2022,10,08,12,41,19.30
2022,10,08,12,42,19.30
2022,10,08,12,43,19.40
2022,10,08,12,44,19.40
2022,10,08,12,45,19.50
2022,10,08,12,46,19.60
2022,10,08,12,47,19.60
2022,10,08,12,48,19.60
2022,10,08,12,49,19.70
2022,10,08,12,50,19.70
2022,10,08,12,51,19.70
2022,10,08,12,52,19.70
2022,10,08,12,53,19.80
2022,10,08,12,54,19.80
2022,10,08,12,55,19.80
2022,10,08,12,56,19.80
2022,10,08,12,57,19.80
2022,10,08,12,58,19.90
2022,10,08,12,59,19.90
2022,10,08,13,00,19.90
2022,10,08,13,01,20.00
2022,10,08,13,02,20.00
2022,10,08,13,03,20.10
2022,10,08,13,04,20.10
2022,10,08,13,05,20.20
2022,10,08,13,06,20.20
2022,10,08,13,07,20.20
2022,10,08,13,08,20.30
2022,10,08,13,09,20.30
2022,10,08,13,10,20.30
2022,10,08,13,11,20.40
2022,10,08,13,12,20.40
2022,10,08,13,13,20.40
2022,10,08,13,14,20.40
2022,10,08,13,15,20.50
2022,10,08,13,16,20.50
2022,10,08,13,17,20.50
2022,10,08,13,18,20.50
2022,10,08,13,19,20.50
2022,10,08,13,20,20.60
2022,10,08,13,21,20.60
2022,10,08,13,22,20.70
2022,10,08,13,23,20.70
2022,10,08,13,24,20.70
2022,10,08,13,25,20.80
2022,10,08,13,26,20.80
2022,10,08,13,27,20.90
2022,10,08,13,28,20.90
2022,10,08,13,29,21.00
2022,10,08,13,30,21.10
2022,10,08,13,31,21.10
2022,10,08,13,32,21.20
2022,10,08,13,33,21.20
2022,10,08,13,34,21.30
2022,10,08,13,35,21.30
2022,10,08,13,36,21.30
2022,10,08,13,37,21.30
2022,10,08,13,38,21.30
2022,10,08,13,39,21.30
2022,10,08,13,40,21.30
2022,10,08,13,41,21.30
2022,10,08,13,42,21.30
2022,10,08,13,43,21.30
2022,10,08,13,44,21.30
2022,10,08,13,45,21.40
2022,10,08,13,46,21.40
2022,10,08,13,47,21.40
2022,10,08,13,48,21.40
2022,10,08,13,49,21.40
2022,10,08,13,50,21.40
2022,10,08,13,51,21.40
2022,10,08,13,52,21.50
2022,10,08,13,53,21.50
2022,10,08,13,54,21.50
2022,10,08,13,55,21.50
2022,10,08,13,56,21.50
2022,10,08,13,57,21.60
2022,10,08,13,58,21.60
2022,10,08,13,59,21.60
2022,10,08,14,00,21.70
2022,10,08,14,01,21.80
2022,10,08,14,02,21.80
2022,10,08,14,03,21.80
2022,10,08,14,04,21.90
2022,10,08,14,05,21.90
2022,10,08,14,06,22.00
2022,10,08,14,07,22.00
2022,10,08,14,08,22.10
2022,10,08,14,09,22.10
2022,10,08,14,10,22.10
2022,10,08,14,11,22.10
2022,10,08,14,12,22.10
2022,10,08,14,13,22.10
2022,10,08,14,14,22.10
2022,10,08,14,15,22.10
2022,10,08,14,16,22.10
2022,10,08,14,17,22.20
2022,10,08,14,18,22.20
2022,10,08,14,19,22.20
2022,10,08,14,20,22.10
2022,10,08,14,21,22.10
2022,10,08,14,22,22.10
2022,10,08,14,23,22.10
2022,10,08,14,24,22.00
2022,10,08,14,25,22.00
2022,10,08,14,26,22.00
2022,10,08,14,27,21.90
2022,10,08,14,28,21.90
2022,10,08,14,29,21.90
2022,10,08,14,30,21.90
2022,10,08,14,31,21.90
2022,10,08,14,32,21.90
2022,10,08,14,33,21.90
2022,10,08,14,34,21.90
2022,10,08,14,35,21.90
2022,10,08,14,36,21.90
2022,10,08,14,37,21.90
2022,10,08,14,38,22.00
2022,10,08,14,39,22.00
2022,10,08,14,40,22.10
2022,10,08,14,41,22.10
2022,10,08,14,42,22.10
2022,10,08,14,43,22.10
2022,10,08,14,44,22.20
2022,10,08,14,45,22.20
2022,10,08,14,46,22.20
2022,10,08,14,47,22.20
2022,10,08,14,48,22.20
2022,10,08,14,49,22.30
2022,10,08,14,50,22.30
2022,10,08,14,51,22.30
2022,10,08,14,52,22.30
2022,10,08,14,53,22.30
2022,10,08,14,54,22.30
2022,10,08,14,55,22.30
2022,10,08,14,56,22.30
2022,10,08,14,57,22.30
2022,10,08,14,58,22.30
2022,10,08,14,59,22.30
2022,10,08,15,00,22.30
2022,10,08,15,01,22.30
2022,10,08,15,02,22.30
2022,10,08,15,03,22.20
2022,10,08,15,04,22.20
2022,10,08,15,05,22.20
2022,10,08,15,06,22.20
2022,10,08,15,07,22.10
2022,10,08,15,08,22.10
2022,10,08,15,09,22.10
2022,10,08,15,10,22.10
2022,10,08,15,11,22.00
2022,10,08,15,12,22.00
2022,10,08,15,13,22.00
2022,10,08,15,14,21.90
2022,10,08,15,15,21.90
2022,10,08,15,16,21.90
2022,10,08,15,17,21.90
2022,10,08,15,18,21.90
2022,10,08,15,19,21.90
2022,10,08,15,20,21.80
2022,10,08,15,21,21.80
2022,10,08,15,22,21.80
2022,10,08,15,23,21.80
2022,10,08,15,24,21.70
2022,10,08,15,25,21.70
2022,10,08,15,26,21.70
2022,10,08,15,27,21.70
2022,10,08,15,28,21.60
2022,10,08,15,29,21.60
2022,10,08,15,30,21.60
2022,10,08,15,31,21.50
2022,10,08,15,32,21.60
2022,10,08,15,33,21.50
2022,10,08,15,34,21.50
2022,10,08,15,35,21.50
2022,10,08,15,36,21.50
2022,10,08,15,37,21.50
2022,10,08,15,38,21.50
2022,10,08,15,39,21.50
2022,10,08,15,40,21.50
2022,10,08,15,41,21.50
2022,10,08,15,42,21.50
2022,10,08,15,43,21.50
2022,10,08,15,44,21.50
2022,10,08,15,45,21.50
2022,10,08,15,46,21.50
2022,10,08,15,47,21.50
2022,10,08,15,48,21.50
2022,10,08,15,49,21.50
2022,10,08,15,50,21.50
2022,10,08,15,51,21.50
2022,10,08,15,52,21.50
2022,10,08,15,53,21.50
2022,10,08,15,54,21.50
2022,10,08,15,55,21.60
2022,10,08,15,56,21.60
2022,10,08,15,57,21.60
2022,10,08,15,58,21.60
2022,10,08,15,59,21.60
2022,10,08,16,00,21.70
2022,10,08,16,01,21.70
2022,10,08,16,02,21.70
2022,10,08,16,03,21.70
2022,10,08,16,04,21.70
2022,10,08,16,05,21.70
2022,10,08,16,06,21.70
2022,10,08,16,07,21.70
2022,10,08,16,08,21.70
2022,10,08,16,09,21.70
2022,10,08,16,10,21.70
2022,10,08,16,11,21.80
2022,10,08,16,12,21.80
2022,10,08,16,13,21.80
2022,10,08,16,14,21.80
2022,10,08,16,15,21.80
2022,10,08,16,16,21.80
2022,10,08,16,17,21.80
2022,10,08,16,18,21.80
2022,10,08,16,19,21.70
2022,10,08,16,20,21.70
2022,10,08,16,21,21.70
2022,10,08,16,22,21.70
2022,10,08,16,23,21.70
2022,10,08,16,24,21.70
2022,10,08,16,25,21.70
2022,10,08,16,26,21.70
2022,10,08,16,27,21.70
2022,10,08,16,28,21.60
2022,10,08,16,29,21.60
2022,10,08,16,30,21.60
2022,10,08,16,31,21.60
2022,10,08,16,32,21.60
2022,10,08,16,33,21.60
2022,10,08,16,34,21.60
2022,10,08,16,35,21.60
2022,10,08,16,36,21.60
2022,10,08,16,37,21.60
2022,10,08,16,38,21.50
2022,10,08,16,39,21.50
2022,10,08,16,40,21.50
2022,10,08,16,41,21.50
2022,10,08,16,42,21.50
2022,10,08,16,43,21.50
2022,10,08,16,44,21.40
2022,10,08,16,45,21.40
2022,10,08,16,46,21.40
2022,10,08,16,47,21.40
2022,10,08,16,48,21.40
2022,10,08,16,49,21.40
2022,10,08,16,50,21.40
2022,10,08,16,51,21.40
2022,10,08,16,52,21.40
2022,10,08,16,53,21.40
2022,10,08,16,54,21.40
2022,10,08,16,55,21.40
2022,10,08,16,56,21.40
2022,10,08,16,57,21.40
2022,10,08,16,58,21.40
2022,10,08,16,59,21.30
2022,10,08,17,00,21.30
2022,10,08,17,01,21.30
2022,10,08,17,02,21.30
2022,10,08,17,03,21.30
2022,10,08,17,04,21.30
2022,10,08,17,05,21.30
2022,10,08,17,06,21.30
2022,10,08,17,07,21.30
2022,10,08,17,08,21.20
2022,10,08,17,09,21.20
2022,10,08,17,10,21.20
2022,10,08,17,11,21.20
2022,10,08,17,12,21.20
2022,10,08,17,13,21.20
2022,10,08,17,14,21.20
2022,10,08,17,15,21.20
2022,10,08,17,16,21.20
2022,10,08,17,17,21.10
2022,10,08,17,18,21.10
2022,10,08,17,19,21.10